Flag for United Kingdom Weather past 2 weeks in Cheltenham, England, United Kingdom

Now
61 °F

Cool.


Feels Like: 61 °F
Forecast: 55 / 72 °F
Wind: 10 mph from Northeast

Location: Little Rissington

Current Time: Sep 19, 2014 at 1:05:04 AM

Latest Report: Sep 19, 2014 at 12:00 AM


Visibility: 2 mi

Pressure: 29.83 "Hg

Humidity: 95%

Dew point: 59 °F

Location of CheltenhamLocation

Historic Weather in Cheltenham — Graph

°F

Cheltenham temperature yesterday

Maximum temperature yesterday: 72 °F (at 3:00 PM)
Minimum temperature yesterday: 57 °F (at 6:00 AM)
Average temperature yesterday: 62 °F

Past Weeks' High & Low Weather Summary

 TemperatureHumidityPressure
High72 °F (Sep 18, 3:00 PM)100% (Sep 4, 8:00 AM)30.34 "Hg (Sep 4, 8:00 AM)
Low46 °F (Sep 8, 6:00 AM)44% (Sep 8, 5:00 PM)29.77 "Hg (Sep 18, 3:00 PM)
Average59 °F82%30.08 "Hg
* Reported Sep 3 11:00 PM — Sep 18 11:00 PM, Cheltenham, Weather by CustomWeather, © 2014

Note: Actual official high and low records may vary slightly from our data, if they occured in-between our weather recording intervals... More about our weather records

Advertising

Cheltenham weather history for previous 24 hours

 ConditionsComfort  
Time TempWeatherWind HumidityBarometerVisibility
11:00 PM
Sep 18
63 °FMild.12 mph90%29.82 "Hg3 mi
10:00 PM64 °FMild.13 mph87%29.81 "Hg4 mi
9:00 PM65 °FMild.9 mph81%29.82 "Hg6 mi
8:00 PM65 °FMild.9 mph78%29.80 "Hg6 mi
7:00 PM68 °FMild.10 mph75%29.79 "Hg6 mi
4:00 PM70 °FMild.13 mph71%29.78 "Hg5 mi
3:00 PM72 °FMild.12 mph72%29.77 "Hg4 mi
2:00 PM69 °FMild.14 mph76%29.79 "Hg3 mi
1:00 PM66 °FMild.14 mph79%29.81 "Hg3 mi
12:00 PM64 °FMild.13 mph88%29.82 "Hg2 mi
11:00 AM62 °FMild.13 mph90%29.83 "Hg2 mi
10:00 AM60 °FCool.12 mph96%29.83 "Hg2 mi
9:00 AM58 °FCool.14 mph98%29.83 "Hg1 mi
8:00 AM57 °FCool.14 mph99%29.82 "Hg1 mi
7:00 AM57 °FCool.15 mph98%29.81 "Hg1 mi
6:00 AM57 °FCool.14 mph98%29.81 "Hg1 mi
5:00 AM57 °FCool.16 mph98%29.81 "Hg2 mi
4:00 AM57 °FCool.15 mph97%29.82 "Hg2 mi
3:00 AM58 °FCool.15 mph96%29.83 "Hg2 mi
2:00 AM58 °FCool.13 mph98%29.84 "Hg1 mi
1:00 AM58 °FCool.13 mph97%29.85 "Hg1 mi
Weather by CustomWeather, © 2014

See weather overviewHow to use our weather pages